Location: Brahman Valley
(40.6513°N, 111.8855°W)
Time: 18:34:25
(UTC+00:00)

ITUPSAT 1 - Visible Passes

Search period start: 22 June 2021 00:00
Search period end: 02 July 2021 00:00
Orbit: 700 x 713 km, 98.6° (Epoch: 21 June)

Date Brightness Start Highest point End Pass type
(mag) Time Alt. Az. Time Alt. Az. Time Alt. Az.
22 Jun ? 03:49:26 10° NNW 03:53:16 25° WNW 03:57:06 10° WSW visible
24 Jun ? 03:39:40 10° N 03:43:49 30° WNW 03:47:58 10° SW visible
25 Jun ? 04:25:37 10° NW 04:27:28 12° WNW 04:29:18 10° W visible
26 Jun ? 03:29:56 10° N 03:34:20 38° WNW 03:38:43 10° SW visible
27 Jun ? 04:15:22 10° NNW 04:18:03 15° WNW 04:20:44 10° W visible
29 Jun ? 04:05:21 10° NNW 04:08:37 19° WNW 04:11:52 10° WSW visible
01 Jul ? 03:55:28 10° NNW 03:59:10 23° WNW 04:02:52 10° WSW visible
